Time,TemperatureF,DewpointF,PressureIn,WindDirection,WindDirectionDegrees,WindSpeedMPH,WindSpeedGustMPH,Humidity,HourlyPrecipIn,Conditions,Clouds,dailyrainin,SoftwareType,DateUTC
2013-01-30 00:02:00,28.0,23.0,29.70,East,88,9.0,22.0,82,0.00,,,0.05,,2013-01-30 06:02:00,
2013-01-30 00:11:00,28.0,23.0,29.70,East,88,9.0,22.0,82,0.00,,,0.05,,2013-01-30 06:11:00,
2013-01-30 00:21:00,27.0,22.0,29.72,NNW,345,13.0,18.0,81,0.00,,,0.05,,2013-01-30 06:21:00,
2013-01-30 00:32:00,27.0,22.0,29.67,ENE,68,10.0,15.0,82,0.00,,,0.05,,2013-01-30 06:32:00,
2013-01-30 00:42:00,27.0,22.0,29.67,ENE,68,10.0,15.0,82,0.00,,,0.05,,2013-01-30 06:42:00,
2013-01-30 00:52:00,27.0,22.0,29.70,North,4,10.0,19.0,81,0.00,,,0.05,,2013-01-30 06:52:00,
2013-01-30 01:02:00,26.0,20.0,29.66,North,358,12.0,22.0,79,0.00,,,0.05,,2013-01-30 07:02:00,
2013-01-30 01:11:00,26.0,20.0,29.66,North,358,12.0,22.0,79,0.00,,,0.05,,2013-01-30 07:11:00,
2013-01-30 01:21:00,26.0,20.0,29.66,North,358,12.0,22.0,79,0.00,,,0.05,,2013-01-30 07:21:00,
2013-01-30 01:32:00,26.0,21.0,29.66,North,354,10.0,17.0,81,0.00,,,0.05,,2013-01-30 07:32:00,
2013-01-30 01:41:00,26.0,21.0,29.66,North,354,10.0,17.0,81,0.00,,,0.05,,2013-01-30 07:41:00,
2013-01-30 01:52:00,25.0,20.0,29.66,NNW,330,11.0,20.0,81,0.00,,,0.05,,2013-01-30 07:52:00,
2013-01-30 02:01:00,25.0,20.0,29.67,NNE,25,7.0,15.0,81,0.00,,,0.05,,2013-01-30 08:01:00,
2013-01-30 02:11:00,25.0,20.0,29.67,NNE,25,7.0,15.0,81,0.00,,,0.05,,2013-01-30 08:11:00,
2013-01-30 02:21:00,25.0,20.0,29.66,NNE,15,12.0,21.0,80,0.00,,,0.05,,2013-01-30 08:21:00,
2013-01-30 02:32:00,25.0,20.0,29.66,NNE,15,12.0,21.0,80,0.00,,,0.05,,2013-01-30 08:32:00,
2013-01-30 02:42:00,25.0,20.0,29.66,NNE,15,12.0,21.0,80,0.00,,,0.05,,2013-01-30 08:42:00,
2013-01-30 02:52:00,25.0,20.0,29.67,NNW,345,14.0,18.0,82,0.00,,,0.05,,2013-01-30 08:52:00,
2013-01-30 03:01:00,24.0,19.0,29.67,NNW,342,12.0,21.0,80,0.00,,,0.05,,2013-01-30 09:01:00,
2013-01-30 03:11:00,24.0,19.0,29.67,NNW,342,12.0,21.0,80,0.00,,,0.05,,2013-01-30 09:11:00,
2013-01-30 03:21:00,24.0,19.0,29.68,NNW,345,15.0,24.0,80,0.00,,,0.05,,2013-01-30 09:21:00,
2013-01-30 03:32:00,24.0,19.0,29.67,North,358,12.0,21.0,81,0.00,,,0.05,,2013-01-30 09:32:00,
2013-01-30 03:42:00,24.0,19.0,29.67,North,358,12.0,21.0,81,0.00,,,0.05,,2013-01-30 09:42:00,
2013-01-30 03:51:00,24.0,19.0,29.67,North,358,12.0,21.0,81,0.00,,,0.05,,2013-01-30 09:51:00,
2013-01-30 04:01:00,23.0,19.0,29.66,NNE,12,12.0,19.0,83,0.00,,,0.05,,2013-01-30 10:01:00,
2013-01-30 04:11:00,23.0,19.0,29.66,NNE,12,12.0,19.0,83,0.00,,,0.05,,2013-01-30 10:11:00,
2013-01-30 04:21:00,23.0,19.0,29.67,North,356,14.0,24.0,83,0.00,,,0.05,,2013-01-30 10:21:00,
2013-01-30 04:32:00,23.0,19.0,29.67,NNW,329,14.0,23.0,83,0.00,,,0.05,,2013-01-30 10:32:00,
2013-01-30 04:42:00,23.0,19.0,29.67,NNW,329,14.0,23.0,83,0.00,,,0.05,,2013-01-30 10:42:00,
2013-01-30 04:52:00,23.0,19.0,29.67,NNW,331,13.0,19.0,85,0.00,,,0.05,,2013-01-30 10:52:00,
2013-01-30 05:02:00,23.0,19.0,29.67,NNW,331,13.0,19.0,85,0.00,,,0.05,,2013-01-30 11:02:00,
2013-01-30 05:11:00,23.0,19.0,29.67,NNW,331,13.0,19.0,85,0.00,,,0.05,,2013-01-30 11:11:00,
2013-01-30 05:22:00,23.0,19.0,29.67,NW,311,12.0,21.0,85,0.00,,,0.05,,2013-01-30 11:22:00,
2013-01-30 05:32:00,23.0,19.0,29.68,NW,325,11.0,15.0,85,0.00,,,0.05,,2013-01-30 11:32:00,
2013-01-30 05:42:00,23.0,19.0,29.68,NW,325,11.0,15.0,85,0.00,,,0.05,,2013-01-30 11:42:00,
2013-01-30 05:52:00,23.0,19.0,29.68,NNW,334,14.0,19.0,84,0.00,,,0.05,,2013-01-30 11:52:00,
2013-01-30 06:02:00,23.0,19.0,29.67,NW,326,12.0,19.0,84,0.00,,,0.05,,2013-01-30 12:02:00,
2013-01-30 06:12:00,23.0,19.0,29.67,NW,326,12.0,19.0,84,0.00,,,0.05,,2013-01-30 12:12:00,
2013-01-30 06:22:00,23.0,19.0,29.65,NW,326,14.0,22.0,84,0.00,,,0.05,,2013-01-30 12:22:00,
2013-01-30 06:33:00,23.0,19.0,29.65,NW,326,14.0,22.0,84,0.00,,,0.05,,2013-01-30 12:33:00,
2013-01-30 06:42:00,23.0,19.0,29.65,NW,326,14.0,22.0,84,0.00,,,0.05,,2013-01-30 12:42:00,
2013-01-30 07:03:00,21.0,17.0,29.64,NW,321,17.0,23.0,86,0.00,,,0.05,,2013-01-30 13:03:00,
2013-01-30 07:12:00,21.0,17.0,29.64,NW,321,17.0,23.0,86,0.00,,,0.05,,2013-01-30 13:12:00,
2013-01-30 07:23:00,20.0,16.0,29.63,NNW,329,18.0,25.0,86,0.00,,,0.05,,2013-01-30 13:23:00,
2013-01-30 07:33:00,19.0,15.0,29.65,NW,326,16.0,24.0,85,0.00,,,0.05,,2013-01-30 13:33:00,
2013-01-30 07:42:00,19.0,15.0,29.65,NW,326,16.0,24.0,85,0.00,,,0.05,,2013-01-30 13:42:00,
2013-01-30 07:53:00,19.0,15.0,29.65,NW,326,16.0,24.0,85,0.00,,,0.05,,2013-01-30 13:53:00,
2013-01-30 08:02:00,18.0,13.0,29.65,NNW,329,23.0,29.0,82,0.00,,,0.05,,2013-01-30 14:02:00,
2013-01-30 08:12:00,18.0,13.0,29.65,NNW,329,23.0,29.0,82,0.00,,,0.05,,2013-01-30 14:12:00,
2013-01-30 08:23:00,18.0,14.0,29.67,NNW,340,17.0,22.0,83,0.00,,,0.05,,2013-01-30 14:23:00,
2013-01-30 08:33:00,18.0,14.0,29.67,NNW,342,17.0,25.0,83,0.00,,,0.05,,2013-01-30 14:33:00,
2013-01-30 08:42:00,18.0,14.0,29.67,NNW,342,17.0,25.0,83,0.00,,,0.05,,2013-01-30 14:42:00,
2013-01-30 08:52:00,17.0,13.0,29.67,NNW,329,18.0,26.0,83,0.00,,,0.05,,2013-01-30 14:52:00,
2013-01-30 09:03:00,17.0,13.0,29.67,NNW,329,18.0,26.0,83,0.00,,,0.05,,2013-01-30 15:03:00,
2013-01-30 09:12:00,17.0,13.0,29.67,NNW,329,18.0,26.0,83,0.00,,,0.05,,2013-01-30 15:12:00,
2013-01-30 09:23:00,17.0,12.0,29.66,North,8,19.0,25.0,82,0.00,,,0.05,,2013-01-30 15:23:00,
2013-01-30 09:33:00,16.0,12.0,29.66,NNW,335,15.0,22.0,83,0.00,,,0.05,,2013-01-30 15:33:00,
2013-01-30 09:43:00,16.0,12.0,29.66,NNW,335,15.0,22.0,83,0.00,,,0.05,,2013-01-30 15:43:00,
2013-01-30 09:53:00,16.0,11.0,29.67,NNW,331,15.0,25.0,81,0.00,,,0.05,,2013-01-30 15:53:00,
2013-01-30 10:03:00,16.0,11.0,29.68,NNW,330,15.0,24.0,81,0.00,,,0.05,,2013-01-30 16:03:00,
2013-01-30 10:12:00,16.0,11.0,29.68,NNW,330,15.0,24.0,81,0.00,,,0.05,,2013-01-30 16:12:00,
2013-01-30 10:23:00,16.0,11.0,29.68,NNW,330,18.0,24.0,80,0.00,,,0.05,,2013-01-30 16:23:00,
2013-01-30 10:32:00,16.0,11.0,29.68,NNW,330,18.0,24.0,80,0.00,,,0.05,,2013-01-30 16:32:00,
2013-01-30 10:42:00,16.0,11.0,29.68,NNW,330,18.0,24.0,80,0.00,,,0.05,,2013-01-30 16:42:00,
2013-01-30 10:52:00,16.0,11.0,29.68,NNW,330,18.0,24.0,80,0.00,,,0.05,,2013-01-30 16:52:00,
2013-01-30 11:02:00,16.0,11.0,29.67,NW,316,16.0,25.0,82,0.00,,,0.05,,2013-01-30 17:02:00,
2013-01-30 11:12:00,16.0,11.0,29.67,NW,316,16.0,25.0,82,0.00,,,0.05,,2013-01-30 17:12:00,
2013-01-30 11:23:00,16.0,11.0,29.67,NNW,330,19.0,24.0,80,0.00,,,0.05,,2013-01-30 17:23:00,
2013-01-30 11:33:00,16.0,11.0,29.67,NW,320,17.0,23.0,81,0.00,,,0.05,,2013-01-30 17:33:00,
2013-01-30 11:42:00,16.0,11.0,29.67,NW,320,17.0,23.0,81,0.00,,,0.05,,2013-01-30 17:42:00,
2013-01-30 11:53:00,16.0,11.0,29.67,NW,320,17.0,23.0,81,0.00,,,0.05,,2013-01-30 17:53:00,
2013-01-30 12:02:00,16.0,11.0,29.67,NW,320,17.0,23.0,81,0.00,,,0.05,,2013-01-30 18:02:00,
2013-01-30 12:12:00,16.0,11.0,29.67,NW,320,17.0,23.0,81,0.00,,,0.05,,2013-01-30 18:12:00,
2013-01-30 12:33:00,15.0,9.0,29.66,NNW,328,21.0,28.0,78,0.00,,,0.03,,2013-01-30 18:33:00,
2013-01-30 12:43:00,15.0,9.0,29.66,NNW,328,21.0,28.0,78,0.00,,,0.03,,2013-01-30 18:43:00,
2013-01-30 12:53:00,15.0,9.0,29.66,NNW,327,17.0,27.0,78,0.00,,,0.03,,2013-01-30 18:53:00,
2013-01-30 13:03:00,15.0,9.0,29.66,NNW,327,17.0,27.0,78,0.00,,,0.03,,2013-01-30 19:03:00,
2013-01-30 13:12:00,15.0,9.0,29.66,NNW,327,17.0,27.0,78,0.00,,,0.03,,2013-01-30 19:12:00,
2013-01-30 13:22:00,15.0,9.0,29.66,NNW,338,19.0,25.0,77,0.00,,,0.03,,2013-01-30 19:22:00,
2013-01-30 13:32:00,15.0,10.0,29.66,NNW,327,17.0,28.0,79,0.00,,,0.03,,2013-01-30 19:32:00,
2013-01-30 13:43:00,15.0,10.0,29.66,NNW,327,17.0,28.0,79,0.00,,,0.03,,2013-01-30 19:43:00,
2013-01-30 13:52:00,15.0,9.0,29.66,NNW,332,22.0,27.0,77,0.00,,,0.03,,2013-01-30 19:52:00,
2013-01-30 14:03:00,15.0,10.0,29.66,NNW,327,20.0,26.0,79,0.00,,,0.03,,2013-01-30 20:03:00,
2013-01-30 14:12:00,15.0,10.0,29.66,NNW,327,20.0,26.0,79,0.00,,,0.03,,2013-01-30 20:12:00,
2013-01-30 14:22:00,15.0,10.0,29.66,NNW,327,20.0,26.0,79,0.00,,,0.03,,2013-01-30 20:22:00,
2013-01-30 14:33:00,15.0,9.0,29.66,NW,319,19.0,24.0,78,0.00,,,0.01,,2013-01-30 20:33:00,
2013-01-30 14:42:00,15.0,9.0,29.66,NW,319,19.0,24.0,78,0.00,,,0.01,,2013-01-30 20:42:00,
2013-01-30 14:53:00,15.0,9.0,29.67,NNW,342,18.0,26.0,75,0.00,,,0.01,,2013-01-30 20:53:00,
2013-01-30 15:03:00,15.0,9.0,29.67,NNW,327,16.0,28.0,76,0.00,,,0.01,,2013-01-30 21:03:00,
2013-01-30 15:12:00,15.0,9.0,29.67,NNW,327,16.0,28.0,76,0.00,,,0.01,,2013-01-30 21:12:00,
2013-01-30 15:23:00,14.0,8.0,29.67,NNW,338,20.0,27.0,75,0.00,,,0.01,,2013-01-30 21:23:00,
2013-01-30 15:32:00,14.0,8.0,29.67,NNW,332,21.0,28.0,75,0.00,,,0.01,,2013-01-30 21:32:00,
2013-01-30 15:42:00,14.0,8.0,29.67,NNW,332,21.0,28.0,75,0.00,,,0.01,,2013-01-30 21:42:00,
2013-01-30 15:53:00,14.0,8.0,29.67,NNW,332,21.0,28.0,75,0.00,,,0.01,,2013-01-30 21:53:00,
2013-01-30 16:03:00,15.0,9.0,29.68,NW,323,16.0,27.0,76,0.00,,,0.01,,2013-01-30 22:03:00,
2013-01-30 16:12:00,15.0,9.0,29.68,NW,323,16.0,27.0,76,0.00,,,0.01,,2013-01-30 22:12:00,
2013-01-30 16:22:00,15.0,9.0,29.68,NW,323,19.0,27.0,76,0.00,,,0.01,,2013-01-30 22:22:00,
2013-01-30 16:32:00,15.0,9.0,29.68,NNW,329,19.0,28.0,77,0.00,,,0.00,,2013-01-30 22:32:00,
2013-01-30 16:42:00,15.0,9.0,29.68,NNW,329,19.0,28.0,77,0.00,,,0.00,,2013-01-30 22:42:00,
2013-01-30 16:52:00,15.0,10.0,29.69,WNW,303,24.0,29.0,80,0.00,,,0.00,,2013-01-30 22:52:00,
2013-01-30 17:02:00,15.0,10.0,29.69,WNW,303,24.0,29.0,80,0.00,,,0.00,,2013-01-30 23:02:00,
2013-01-30 17:12:00,15.0,10.0,29.69,WNW,303,24.0,29.0,80,0.00,,,0.00,,2013-01-30 23:12:00,
2013-01-30 17:22:00,15.0,9.0,29.69,NNW,338,23.0,33.0,75,0.00,,,0.00,,2013-01-30 23:22:00,
2013-01-30 17:32:00,14.0,9.0,29.70,NW,307,21.0,28.0,80,0.00,,,0.00,,2013-01-30 23:32:00,
2013-01-30 17:42:00,14.0,9.0,29.70,NW,307,21.0,28.0,80,0.00,,,0.00,,2013-01-30 23:42:00,
2013-01-30 17:52:00,13.0,7.0,29.70,NW,307,19.0,33.0,78,0.00,,,0.00,,2013-01-30 23:52:00,
2013-01-30 18:02:00,13.0,7.0,29.71,NW,314,16.0,26.0,78,0.00,,,0.00,,2013-01-31 00:02:00,
2013-01-30 18:11:00,13.0,7.0,29.71,NW,314,16.0,26.0,78,0.00,,,0.00,,2013-01-31 00:11:00,
2013-01-30 18:22:00,13.0,7.0,29.71,NW,314,16.0,26.0,78,0.00,,,0.00,,2013-01-31 00:22:00,
2013-01-30 18:32:00,12.0,6.0,29.71,WNW,298,21.0,31.0,78,0.00,,,0.00,,2013-01-31 00:32:00,
2013-01-30 18:42:00,12.0,6.0,29.71,WNW,298,21.0,31.0,78,0.00,,,0.00,,2013-01-31 00:42:00,
2013-01-30 18:52:00,12.0,6.0,29.72,NW,316,19.0,25.0,78,0.00,,,0.00,,2013-01-31 00:52:00,
2013-01-30 19:02:00,12.0,6.0,29.72,NW,307,22.0,28.0,78,0.00,,,0.00,,2013-01-31 01:02:00,
2013-01-30 19:12:00,12.0,6.0,29.72,NW,307,22.0,28.0,78,0.00,,,0.00,,2013-01-31 01:12:00,
2013-01-30 19:21:00,12.0,7.0,29.72,WNW,300,17.0,22.0,79,0.00,,,0.00,,2013-01-31 01:21:00,
2013-01-30 19:32:00,12.0,7.0,29.72,WNW,300,17.0,22.0,79,0.00,,,0.00,,2013-01-31 01:32:00,
2013-01-30 19:42:00,12.0,7.0,29.72,WNW,300,17.0,22.0,79,0.00,,,0.00,,2013-01-31 01:42:00,
2013-01-30 19:52:00,12.0,7.0,29.72,WNW,303,16.0,24.0,80,0.00,,,0.00,,2013-01-31 01:52:00,
2013-01-30 20:01:00,12.0,7.0,29.72,WNW,290,18.0,24.0,80,0.00,,,0.00,,2013-01-31 02:01:00,
2013-01-30 20:12:00,12.0,7.0,29.72,WNW,290,18.0,24.0,80,0.00,,,0.00,,2013-01-31 02:12:00,
2013-01-30 20:21:00,11.0,6.0,29.73,WNW,300,19.0,25.0,80,0.00,,,0.00,,2013-01-31 02:21:00,
2013-01-30 20:32:00,11.0,6.0,29.73,NW,311,15.0,25.0,80,0.00,,,0.00,,2013-01-31 02:32:00,
2013-01-30 20:42:00,11.0,6.0,29.73,NW,311,15.0,25.0,80,0.00,,,0.00,,2013-01-31 02:42:00,
2013-01-30 20:52:00,11.0,6.0,29.73,NW,311,15.0,25.0,80,0.00,,,0.00,,2013-01-31 02:52:00,
2013-01-30 21:03:00,11.0,6.0,29.74,WNW,291,14.0,24.0,80,0.00,,,0.00,,2013-01-31 03:03:00,
2013-01-30 21:11:00,11.0,6.0,29.74,WNW,291,14.0,24.0,80,0.00,,,0.00,,2013-01-31 03:11:00,
2013-01-30 21:21:00,11.0,6.0,29.74,WNW,300,17.0,25.0,80,0.00,,,0.00,,2013-01-31 03:21:00,
2013-01-30 21:32:00,11.0,6.0,29.74,WNW,290,20.0,28.0,79,0.00,,,0.00,,2013-01-31 03:32:00,
2013-01-30 21:41:00,11.0,6.0,29.74,WNW,290,20.0,28.0,79,0.00,,,0.00,,2013-01-31 03:41:00,
2013-01-30 21:51:00,10.0,5.0,29.75,WNW,302,15.0,23.0,80,0.00,,,0.00,,2013-01-31 03:51:00,
2013-01-30 22:02:00,10.0,5.0,29.75,WNW,283,19.0,27.0,79,0.00,,,0.00,,2013-01-31 04:02:00,
2013-01-30 22:11:00,10.0,5.0,29.75,WNW,283,19.0,27.0,79,0.00,,,0.00,,2013-01-31 04:11:00,
2013-01-30 22:22:00,10.0,5.0,29.75,WNW,283,19.0,27.0,79,0.00,,,0.00,,2013-01-31 04:22:00,
2013-01-30 22:31:00,10.0,5.0,29.76,WNW,301,14.0,25.0,80,0.00,,,0.00,,2013-01-31 04:31:00,
2013-01-30 22:41:00,10.0,5.0,29.76,WNW,301,14.0,25.0,80,0.00,,,0.00,,2013-01-31 04:41:00,
2013-01-30 22:51:00,10.0,4.0,29.76,NW,311,18.0,29.0,77,0.00,,,0.00,,2013-01-31 04:51:00,
2013-01-30 23:03:00,9.0,4.0,29.76,WNW,293,13.0,27.0,78,0.00,,,0.00,,2013-01-31 05:03:00,
2013-01-30 23:11:00,9.0,4.0,29.76,WNW,293,13.0,27.0,78,0.00,,,0.00,,2013-01-31 05:11:00,
2013-01-30 23:22:00,8.0,4.0,29.77,WNW,295,12.0,19.0,82,0.00,,,0.00,,2013-01-31 05:22:00,
2013-01-30 23:32:00,8.0,4.0,29.77,WNW,295,12.0,19.0,82,0.00,,,0.00,,2013-01-31 05:32:00,
2013-01-30 23:41:00,8.0,4.0,29.77,WNW,295,12.0,19.0,82,0.00,,,0.00,,2013-01-31 05:41:00,
2013-01-30 23:52:00,8.0,4.0,29.77,WNW,295,12.0,19.0,82,0.00,,,0.00,,2013-01-31 05:52:00,